Location: Dompnac
(44.5644°N, 4.1026°E)
Time: 02:32:03
(UTC+00:00)

USA 234 - Pass Details

Date: 17 January 2021
Orbit: 1100 x 1107 km, 123.0° (Epoch: 01 March)

Event Time Altitude Azimuth Distance (km) Brightness Sun altitude
Exits shadow 19:06:24 53° 43° (NE) 1,339 3.4 -27.0°
Maximum altitude 19:06:52 54° 28° (NNE) 1,325 3.4 -27.1°
Drops below altitude 10° 19:13:11 10° 314° (NW) 2,967 6.0 -28.2°
Sets 19:15:43 0° 310° (NW) 3,928 6.8 -28.7°
